Wetbulb
2.24 6.23 6.83 4.61 4.64 -3.51 -11.34 -16.18 -12.27 -12.02 -12.04 -5.19 0.86 4.11 9.48 11.21 13.55 15.75 16.32 16.85 17.44 17.37 17.57 17.46 16.55 18.11 20.70 20.86 21.86 23.02 23.85 24.65 25.17 27.06 29.37 31.82 34.55 35.69 38.66 39.86 43.87 58.76 58.56 58.21
-0.04 8.75 8.25 5.80 7.62 3.73 -2.09 -17.05 -15.60 -16.27 -9.10 -4.05 1.03 5.37 6.56 10.21 12.55 12.87 14.54 15.48 16.38 17.39 17.76 16.91 16.20 16.81 19.96 19.79 20.45 22.24 22.38 22.96 24.92 26.34 27.27 28.47 31.72 34.37 35.30 37.46 38.95 43.40 58.92 58.92
-6.20 4.26 4.22 -0.99 2.08 2.23 -2.44 -6.55 -5.74 -6.36 -2.98 -3.19 0.87 6.01 6.64 10.47 11.20 11.38 13.30 14.57 14.75 15.68 17.17 16.92 15.94 16.88 18.01 19.56 20.56 20.68 21.47 22.28 23.74 25.38 25.84 26.83 29.08 32.14 33.92 34.71 37.55 39.28 44.46 53.72
-6.18 -2.94 -15.57 1.04 4.86 7.98 5.25 5.06 2.18 3.56 2.85 2.23 2.70 2.72 4.19 10.42 10.55 9.59 10.02 13.45 14.76 15.56 16.80 17.29 16.93 16.68 17.12 19.15 19.72 19.43 20.15 21.22 22.74 24.10 24.70 26.22 27.33 28.33 31.38 34.25 35.12 37.97 41.81 45.26
-13.13 -12.11 -1.39 3.34 5.72 2.16 -1.25 1.04 6.62 4.50 6.32 6.22 6.39 4.15 2.77 11.79 10.18 11.25 10.14 11.35 13.29 15.48 17.27 17.23 16.90 16.71 16.67 16.74 17.91 18.54 18.39 20.13 22.04 23.23 23.95 24.64 25.45 26.85 29.03 32.25 34.21 36.22 37.14 41.43
-7.64 -11.47 -8.81 -1.44 6.69 9.41 5.90 -2.72 7.66 8.26 7.21 6.09 6.69 -2.93 2.89 8.94 11.07 13.05 14.91 14.44 12.63 15.25 16.56 16.64 16.84 17.12 15.75 14.79 15.49 16.45 18.09 19.98 22.75 22.69 23.87 23.35 24.66 26.08 28.23 31.69 32.21 33.85 34.14 34.78
-6.11 -7.71 -2.86 4.55 7.50 9.20 -7.12 0.36 9.05 9.02 8.51 6.20 1.88 4.08 6.72 11.16 12.23 13.08 14.44 14.97 15.44 15.03 14.56 14.67 16.56 17.00 15.04 14.42 13.79 16.45 19.12 20.78 21.57 22.22 23.97 23.84 24.65 25.72 27.23 28.87 31.39 31.69 31.72 31.85
-3.64 -10.60 -10.60 7.67 5.74 -1.09 3.90 2.69 9.01 8.64 8.37 6.81 8.01 9.42 10.31 12.48 12.99 14.21 13.86 14.42 15.35 14.22 14.31 15.34 16.16 15.27 13.79 13.24 16.02 16.02 17.80 19.37 20.31 21.14 21.77 23.79 23.41 24.73 25.88 26.85 27.19 28.47 29.60 30.65
-1.05 2.22 2.00 6.46 3.35 4.09 -5.40 0.23 0.77 0.62 7.46 8.05 7.01 9.42 11.56 11.44 11.17 12.22 12.80 13.26 13.63 13.13 13.59 13.76 13.60 13.52 11.49 13.21 15.06 14.99 15.71 17.05 19.48 20.79 20.33 21.55 22.20 23.37 24.14 25.63 25.51 25.84 26.85 27.10
-1.56 0.32 -1.31 3.16 0.82 -4.65 -4.89 -1.53 -4.90 -0.45 1.00 6.72 5.23 7.78 9.08 9.91 7.40 8.95 11.45 11.16 13.15 12.55 11.77 11.65 12.50 14.19 11.92 14.00 14.48 14.05 13.59 15.09 17.97 17.42 19.07 19.27 21.44 23.51 23.87 24.94 24.62 25.28 25.22 25.05
-3.67 0.83 -3.57 0.61 -1.18 -0.07 -4.33 -5.26 -5.36 -5.89 -3.00 1.87 1.82 3.30 1.98 2.18 3.10 2.86 5.05 7.06 9.35 9.04 10.08 9.89 11.27 11.27 11.42 13.61 13.29 13.20 13.73 15.06 15.08 17.38 16.63 17.79 19.43 21.00 23.60 26.59 28.12 26.22 25.56 25.62
2.45 1.97 -0.33 0.79 -6.58 -13.23 -3.43 -2.62 -1.35 -4.75 -4.45 -4.17 -3.43 2.33 -4.82 0.77 -1.15 -5.16 -0.97 0.79 4.00 6.66 6.25 7.25 6.50 7.69 10.06 11.72 12.44 12.20 12.48 14.52 14.83 14.91 14.08 17.42 17.18 18.41 24.16 26.52 28.25 29.10 30.58 29.45
2.53 -10.28 -7.04 -6.15 -11.25 -14.65 -6.64 -7.18 -10.69 -7.35 -5.35 -4.95 -7.14 -6.11 -9.65 -6.79 -9.66 0.35 -1.01 -4.54 -4.96 -0.03 1.08 2.07 4.19 5.96 7.77 9.19 10.94 12.65 12.40 13.52 13.80 13.99 13.70 12.96 14.33 16.01 15.71 20.36 24.22 24.72 26.77 28.12
-14.31 -6.32 -1.58 -10.72 1.18 -13.87 -12.89 -14.45 -10.39 -13.66 -15.58 -11.55 -9.02 -14.93 -13.33 -9.49 -9.78 -6.77 -1.58 -0.29 -6.42 -5.91 -1.00 -2.58 -0.95 3.17 4.78 5.36 6.81 8.07 9.46 16.28 14.03 12.07 13.85 13.40 15.49 15.45 15.57 15.56 15.59 16.68 21.17 23.81
-3.65 -4.46 -4.80 -12.76 -14.01 -11.84 -18.28 -14.78 -7.53 -7.50 -8.90 -10.25 -13.09 -8.21 -12.53 -6.02 -5.45 -1.68 -1.99 -2.88 -4.63 -4.28 -0.89 -1.58 0.33 4.04 1.20 2.94 8.53 4.47 8.98 8.34 9.19 11.74 13.50 16.19 16.38 14.97 14.22 14.57 14.33 14.39 16.42 18.77
-10.13 -10.97 -10.05 -7.17 -3.86 -8.85 -8.47 -8.21 -6.52 -3.66 -3.45 -1.47 1.39 2.25 1.20 0.28 -0.21 0.04 0.48 -3.01 -2.74 1.51 3.48 0.08 3.94 5.88 1.87 -0.56 3.73 7.78 5.67 15.85 18.00 14.63 12.16 12.49 13.18 13.55 12.62 12.39 11.28 13.27 13.49 14.31
2.48 0.07 -1.73 -0.24 2.48 2.04 1.65 4.29 4.81 6.14 6.91 6.99 7.08 8.11 7.71 6.06 4.59 3.72 3.45 3.17 3.64 1.74 2.45 1.24 5.72 8.96 6.80 4.29 1.18 4.63 6.32 7.87 16.17 12.30 9.55 9.85 10.56 12.03 12.53 11.76 11.78 11.75 11.56 14.97
7.92 6.49 7.46 7.27 6.48 6.29 6.88 7.97 8.62 8.93 8.48 9.72 9.99 9.42 8.50 7.36 6.46 7.52 6.74 5.89 4.92 5.40 5.20 6.25 6.64 8.75 9.29 7.96 6.86 6.07 5.87 5.55 6.99 6.49 9.31 7.51 7.33 9.73 10.24 8.62 8.61 8.29 9.61 13.11
7.38 8.53 8.35 9.47 8.25 8.22 8.23 8.76 9.78 10.88 10.90 10.66 10.03 9.18 9.18 9.23 9.86 10.33 10.21 7.50 5.40 4.51 8.48 9.08 15.14 16.97 11.43 12.34 15.45 9.01 9.46 8.28 7.53 7.27 8.84 13.44 11.92 11.20 11.74 11.74 10.10 8.65 8.30 11.81
9.14 9.65 9.62 10.05 9.95 9.28 9.58 10.24 9.82 9.28 10.04 10.15 11.17 11.01 10.23 10.53 11.39 11.30 11.33 10.29 10.45 8.78 11.53 11.72 10.14 8.50 9.89 11.29 18.38 12.17 12.34 10.71 9.18 8.65 8.90 9.20 9.42 9.23 8.68 13.21 11.66 10.17 10.15 11.49
10.53 10.49 9.83 9.80 9.56 9.91 10.31 7.77 5.65 4.87 8.66 10.33 10.02 10.36 10.83 11.41 12.03 12.05 11.02 8.58 10.20 13.97 14.03 16.41 13.00 10.48 11.74 13.48 14.96 9.20 8.97 9.48 9.16 8.26 9.52 8.94 9.39 10.27 11.57 10.44 11.50 12.52 11.70 11.84
9.41 8.33 9.26 9.54 9.21 7.90 8.39 6.17 4.82 7.83 8.03 8.39 8.94 8.55 7.84 7.67 7.77 7.93 9.09 8.45 9.78 15.75 12.81 11.28 11.40 12.81 13.19 17.96 12.98 11.16 10.60 9.80 10.07 9.80 8.56 8.73 9.10 9.24 8.58 8.58 8.75 10.99 10.99 9.39
6.81 6.84 8.73 8.52 7.13 5.35 7.00 7.15 6.65 6.67 6.16 7.12 7.01 6.66 6.82 6.71 6.42 3.98 4.90 8.09 10.25 12.11 11.83 9.91 14.19 17.74 18.95 16.97 15.09 14.89 13.32 10.81 10.64 11.38 10.39 9.31 9.84 9.10 8.69 8.01 8.41 9.69 8.08 8.32
6.98 7.88 5.98 7.34 3.51 5.15 1.75 6.29 5.46 6.55 6.31 7.40 7.09 7.18 6.18 5.02 6.17 7.51 7.66 12.53 14.90 14.18 10.81 10.98 13.21 17.66 19.26 13.61 10.61 9.61 9.29 9.65 10.43 10.45 9.58 15.40 10.91 8.32 7.99 9.30 8.56 8.79 8.51 11.26
5.56 4.93 4.50 2.58 3.45 5.65 5.50 6.25 4.82 4.39 3.68 3.77 4.57 5.90 7.08 7.90 6.35 7.07 5.57 7.06 12.42 12.96 10.01 13.31 16.04 17.33 12.33 9.93 8.92 7.37 6.20 5.84 4.85 5.14 5.69 6.70 6.21 5.34 6.02 5.68 5.06 5.42 5.68 5.60
5.60 5.41 5.75 6.36 5.95 6.41 6.21 4.85 2.27 3.04 4.35 4.24 6.60 6.53 6.17 6.50 5.71 7.44 5.54 9.04 9.10 10.38 9.38 8.05 5.05 6.05 5.69 4.20 3.88 4.26 4.70 4.40 7.69 6.69 6.95 5.52 4.73 3.79 3.48 3.53 2.90 3.59 3.50 3.24
6.60 10.05 3.10 5.27 6.14 6.40 5.66 3.85 0.40 2.45 5.71 4.67 4.32 6.04 5.58 6.89 7.00 8.85 9.02 6.05 4.99 4.89 4.55 4.30 3.52 5.34 5.12 4.57 4.58 4.57 4.76 4.84 8.22 4.32 4.14 3.35 1.90 1.45 2.26 3.03 3.12 3.74 3.70 3.25
MSLP
1036.11 1035.63 1035.57 1035.95 1036.78 1038.13 1039.62 1040.35 1040.82 1039.71 1038.62 1035.99 1034.47 1033.34 1032.04 1031.42 1030.47 1029.71 1029.11 1029.01 1028.53 1028.43 1028.39 1027.54 1026.91 1025.82 1024.91 1024.48 1023.04 1022.14 1021.78 1020.82 1019.53 1018.92 1017.61 1017.01 1015.84 1014.91 1013.59 1013.00 1012.85 1011.75 1011.78 1013.53
1036.02 1034.74 1034.62 1034.52 1035.27 1036.67 1037.99 1038.97 1039.33 1038.83 1037.95 1035.75 1034.23 1033.29 1032.53 1031.69 1031.34 1030.52 1029.80 1029.50 1029.05 1028.96 1028.13 1028.17 1027.60 1026.71 1026.07 1025.00 1024.16 1023.18 1022.31 1021.22 1020.44 1019.38 1018.88 1017.84 1017.13 1016.59 1015.49 1014.61 1014.12 1013.29 1011.83 1011.79
1037.02 1035.47 1034.50 1034.29 1034.60 1035.32 1036.31 1036.93 1037.64 1037.39 1036.06 1035.24 1034.41 1033.45 1032.72 1031.90 1031.39 1030.93 1030.46 1030.04 1029.77 1029.07 1028.90 1028.66 1027.76 1027.23 1027.18 1026.75 1025.90 1024.86 1024.04 1022.66 1021.89 1020.93 1019.69 1019.02 1019.04 1018.05 1016.85 1016.49 1015.59 1014.79 1013.71 1011.81
1038.48 1036.76 1035.43 1034.00 1033.63 1034.00 1034.78 1034.80 1035.02 1034.98 1034.62 1034.38 1033.95 1033.14 1032.39 1031.77 1031.27 1030.83 1030.72 1030.70 1030.06 1029.21 1028.64 1028.58 1028.12 1027.61 1027.79 1027.26 1026.48 1025.62 1024.90 1024.26 1023.18 1022.16 1021.15 1020.70 1019.93 1019.45 1017.80 1017.19 1016.55 1015.04 1014.37 1013.76
1040.06 1038.95 1035.82 1033.70 1033.38 1033.56 1034.12 1033.34 1032.80 1033.28 1033.39 1033.36 1033.28 1033.03 1032.42 1031.61 1031.42 1030.97 1030.85 1030.55 1030.15 1029.73 1029.09 1028.43 1028.32 1028.37 1028.11 1027.67 1027.00 1026.29 1025.53 1025.01 1023.98 1023.26 1022.61 1022.29 1021.25 1020.45 1019.20 1018.27 1017.52 1016.55 1016.30 1015.22
1040.49 1039.36 1036.60 1033.54 1032.87 1033.12 1033.80 1033.19 1032.04 1032.44 1032.64 1032.83 1033.00 1033.21 1032.39 1031.76 1031.32 1030.89 1030.95 1030.80 1030.32 1029.86 1029.36 1028.90 1028.75 1028.56 1028.36 1027.97 1027.62 1027.09 1026.38 1025.71 1024.99 1024.10 1023.24 1023.03 1022.63 1021.58 1020.02 1019.30 1019.06 1018.14 1018.69 1017.36
1039.62 1038.54 1035.35 1032.95 1033.12 1033.66 1034.02 1032.78 1031.75 1031.97 1032.15 1032.53 1032.84 1032.39 1031.88 1031.61 1031.41 1031.13 1030.91 1030.82 1030.43 1030.33 1030.18 1029.69 1029.43 1029.03 1028.55 1028.40 1027.99 1027.61 1026.90 1026.00 1025.19 1024.82 1024.08 1023.89 1023.12 1021.92 1021.23 1020.49 1019.91 1019.35 1019.40 1018.86
1038.80 1037.61 1034.83 1032.78 1033.88 1033.84 1032.35 1032.13 1031.88 1032.00 1031.94 1032.03 1031.98 1031.83 1031.89 1031.62 1031.28 1031.28 1031.01 1030.70 1030.61 1030.50 1030.36 1030.07 1029.82 1029.37 1029.13 1028.76 1028.50 1027.96 1027.17 1026.24 1025.57 1025.23 1024.81 1024.50 1023.86 1022.82 1022.26 1021.65 1021.38 1020.72 1020.68 1020.43
1037.03 1034.04 1032.31 1032.14 1031.89 1031.78 1032.14 1032.37 1032.35 1032.45 1031.99 1031.90 1031.99 1031.85 1031.76 1031.80 1031.76 1031.36 1031.38 1031.17 1030.97 1030.69 1030.59 1030.56 1030.21 1030.02 1029.61 1029.41 1028.87 1028.24 1027.58 1026.95 1026.18 1025.79 1025.23 1025.06 1024.73 1023.86 1023.09 1022.68 1022.35 1022.11 1021.65 1021.50
1036.39 1032.66 1032.77 1032.49 1032.33 1032.55 1032.64 1032.88 1032.57 1032.44 1032.36 1032.28 1032.24 1031.96 1032.07 1031.94 1032.03 1032.06 1031.61 1031.21 1030.99 1031.05 1031.15 1030.97 1030.56 1030.20 1030.20 1029.89 1029.25 1028.57 1028.02 1027.47 1026.54 1026.07 1025.42 1025.74 1025.48 1024.75 1023.80 1023.35 1023.19 1022.99 1022.84 1022.73
1035.21 1033.13 1033.02 1032.45 1032.71 1032.12 1032.57 1032.97 1033.22 1032.95 1032.73 1032.55 1032.67 1032.47 1032.46 1032.60 1032.35 1032.34 1032.27 1032.01 1031.84 1031.89 1031.55 1031.21 1030.84 1030.51 1030.50 1030.13 1029.68 1029.08 1028.61 1027.97 1027.40 1026.93 1026.89 1026.61 1025.80 1025.19 1024.53 1024.22 1023.99 1023.77 1023.75 1023.84
1033.28 1032.25 1032.86 1032.73 1032.26 1032.68 1033.05 1032.98 1032.90 1033.18 1033.19 1032.69 1032.72 1032.71 1032.69 1032.69 1032.67 1032.87 1032.55 1032.35 1032.27 1031.91 1031.65 1031.33 1031.10 1030.77 1030.39 1030.29 1029.93 1029.41 1029.02 1028.52 1028.00 1027.90 1027.67 1026.81 1026.24 1025.67 1025.41 1025.19 1024.93 1024.72 1024.25 1024.14
1031.99 1032.31 1032.64 1032.25 1032.82 1032.79 1033.09 1032.83 1032.67 1032.85 1032.80 1033.16 1032.56 1032.80 1032.92 1032.84 1032.68 1032.48 1032.28 1032.32 1032.37 1032.28 1031.88 1031.64 1031.31 1031.05 1030.51 1030.16 1029.94 1029.61 1029.35 1028.94 1028.67 1028.19 1027.79 1027.46 1026.95 1026.72 1026.26 1025.95 1025.47 1025.29 1025.47 1025.22
1031.66 1032.61 1032.70 1032.69 1032.54 1032.17 1032.36 1032.47 1032.58 1032.64 1032.84 1032.81 1032.69 1032.60 1032.69 1032.50 1032.40 1032.12 1031.98 1031.60 1031.90 1031.76 1031.52 1031.33 1031.02 1030.60 1030.11 1030.04 1030.01 1029.88 1029.45 1028.89 1028.94 1028.57 1027.97 1027.83 1027.58 1027.43 1027.31 1026.96 1026.34 1026.20 1026.18 1025.81
1030.78 1031.45 1031.50 1031.77 1031.95 1031.99 1032.03 1032.04 1032.41 1032.52 1032.15 1032.07 1032.03 1031.76 1031.72 1031.58 1031.36 1031.04 1030.76 1030.81 1031.00 1031.14 1030.95 1030.84 1030.66 1030.25 1029.94 1029.93 1029.84 1029.58 1029.48 1029.08 1028.80 1028.47 1028.38 1028.18 1028.04 1028.13 1028.16 1027.81 1027.42 1027.29 1027.13 1026.84
1029.77 1030.22 1030.87 1031.05 1031.09 1031.38 1031.58 1031.51 1031.30 1031.00 1030.81 1030.54 1030.39 1030.20 1029.94 1030.06 1030.02 1029.95 1030.02 1030.33 1030.60 1030.22 1029.80 1029.95 1029.94 1029.46 1029.53 1029.63 1029.64 1029.49 1029.08 1028.47 1028.01 1028.10 1028.41 1028.44 1028.48 1028.63 1028.76 1028.61 1028.31 1028.19 1027.89 1027.41
1028.99 1029.21 1029.35 1029.46 1029.55 1029.48 1029.52 1029.42 1029.39 1029.20 1029.08 1029.00 1028.72 1028.46 1028.49 1028.69 1028.84 1028.83 1028.82 1029.10 1029.30 1029.33 1029.25 1029.30 1028.82 1028.54 1028.65 1028.74 1028.80 1028.77 1028.59 1028.55 1028.31 1028.33 1028.65 1028.65 1028.73 1028.85 1028.85 1028.69 1028.50 1028.29 1028.05 1027.59
1026.49 1026.57 1026.69 1026.88 1027.13 1027.68 1027.95 1028.00 1028.05 1027.92 1027.81 1027.56 1027.42 1027.46 1027.59 1027.73 1027.69 1027.64 1027.60 1027.83 1028.23 1028.44 1028.46 1028.21 1028.18 1028.14 1028.08 1028.10 1028.21 1028.22 1028.29 1028.27 1028.36 1028.42 1028.26 1028.50 1028.55 1028.86 1028.56 1028.38 1028.40 1028.34 1028.30 1028.06
1025.43 1025.56 1025.87 1026.00 1026.16 1026.50 1026.80 1027.00 1027.03 1026.94 1026.89 1026.89 1026.88 1026.79 1026.76 1026.79 1026.72 1026.65 1026.78 1027.10 1027.49 1027.66 1027.16 1027.22 1027.37 1027.38 1027.54 1027.55 1027.59 1027.65 1027.82 1027.98 1028.20 1028.35 1028.23 1028.07 1028.11 1028.47 1027.65 1027.87 1028.21 1028.16 1027.97 1028.02
1024.52 1024.84 1025.18 1025.38 1025.66 1025.95 1026.21 1026.35 1026.44 1026.62 1026.53 1026.52 1026.46 1026.41 1026.34 1026.25 1026.17 1026.18 1026.27 1026.46 1026.45 1026.53 1026.56 1026.60 1026.71 1026.80 1026.87 1026.96 1026.95 1027.07 1027.36 1027.58 1027.84 1028.02 1028.06 1028.01 1027.97 1027.81 1027.57 1027.49 1027.46 1027.75 1027.75 1027.73
1023.85 1024.21 1024.52 1024.83 1025.21 1025.52 1025.80 1026.02 1026.36 1026.46 1026.41 1026.37 1026.39 1026.31 1026.24 1026.18 1026.18 1026.21 1026.31 1026.37 1026.18 1026.15 1026.14 1026.13 1026.15 1026.22 1026.26 1026.34 1026.39 1026.46 1026.69 1027.00 1027.21 1027.27 1027.21 1027.18 1027.25 1027.22 1027.23 1027.17 1027.06 1027.13 1027.24 1027.24
1023.35 1023.79 1024.14 1024.49 1025.02 1025.41 1025.61 1025.89 1026.16 1026.29 1026.36 1026.36 1026.31 1026.28 1026.30 1026.29 1026.28 1026.28 1026.28 1026.37 1026.11 1025.95 1025.82 1025.79 1025.72 1025.67 1025.62 1025.59 1025.60 1025.77 1025.96 1026.11 1026.21 1026.26 1026.40 1026.48 1026.61 1026.59 1026.73 1026.79 1026.86 1026.82 1026.85 1026.73
1022.87 1023.38 1023.84 1024.37 1024.90 1025.22 1025.43 1025.75 1025.98 1026.11 1026.21 1026.25 1026.30 1026.33 1026.32 1026.31 1026.34 1026.46 1026.25 1026.01 1025.86 1025.77 1025.51 1025.41 1025.34 1025.06 1024.75 1024.53 1024.68 1024.95 1025.14 1025.37 1025.55 1025.65 1025.77 1025.85 1025.87 1026.00 1026.14 1026.18 1026.17 1026.21 1026.33 1026.29
1022.67 1023.24 1023.69 1024.23 1024.71 1025.23 1025.50 1025.58 1025.73 1025.83 1025.91 1026.02 1026.11 1026.14 1026.20 1026.23 1026.15 1026.01 1025.93 1025.69 1025.40 1025.27 1025.28 1025.15 1024.97 1024.69 1024.29 1024.41 1024.64 1024.85 1024.99 1025.08 1025.15 1025.20 1025.27 1025.20 1025.44 1025.52 1025.66 1025.74 1025.82 1025.86 1025.91 1026.01
1022.63 1023.22 1023.74 1024.27 1024.66 1024.99 1025.30 1025.46 1025.66 1025.80 1025.91 1025.93 1025.90 1025.89 1025.84 1025.87 1026.03 1025.76 1025.67 1025.56 1025.31 1025.00 1025.01 1024.89 1024.57 1024.30 1024.66 1024.87 1025.00 1025.04 1025.03 1025.00 1024.97 1024.96 1024.96 1025.02 1025.03 1025.08 1025.15 1025.25 1025.35 1025.43 1025.42 1025.36
1022.76 1023.16 1023.58 1023.90 1024.33 1024.82 1025.14 1025.52 1025.85 1025.79 1025.83 1025.84 1025.73 1025.67 1025.64 1025.64 1025.66 1025.52 1025.49 1025.26 1025.12 1024.98 1024.85 1024.87 1024.80 1024.66 1024.53 1024.49 1024.56 1024.62 1024.66 1024.67 1024.60 1024.53 1024.50 1024.53 1024.57 1024.59 1024.58 1024.57 1024.59 1024.61 1024.66 1024.71
1022.83 1023.12 1023.71 1024.12 1024.31 1024.46 1024.84 1025.22 1025.71 1025.70 1025.59 1025.62 1025.58 1025.50 1025.48 1025.46 1025.48 1025.23 1025.20 1025.21 1025.06 1024.93 1024.80 1024.65 1024.51 1024.39 1024.24 1024.14 1024.06 1024.00 1023.96 1023.94 1023.94 1023.98 1023.95 1023.96 1023.99 1024.02 1024.07 1024.06 1024.04 1023.99 1023.98 1024.02
Wind_Speed
9 13 6 6 4 3 3 5 5 6 6 9 8 7 6 5 9 12 12 13 13 12 11 12 14 15 14 15 16 16 13 14 15 14 14 13 13 14 12 12 11 12 18 16
5 4 9 13 6 4 4 3 5 2 8 8 7 6 5 5 7 10 11 13 14 13 13 13 13 13 13 15 15 15 15 15 14 15 14 15 15 12 13 13 13 14 19 19
7 8 10 4 4 3 4 4 6 3 9 2 6 7 5 5 5 7 8 10 11 12 12 11 12 11 10 11 11 12 13 14 15 14 15 16 13 12 12 12 10 12 13 6
6 7 5 7 3 4 6 9 9 5 6 6 6 6 7 4 4 6 6 6 7 7 10 10 11 10 9 8 10 11 12 13 13 13 14 14 13 13 12 10 12 11 10 10
1 2 8 2 4 5 4 8 6 7 5 4 3 3 5 3 2 2 3 5 4 5 5 7 10 10 9 9 10 10 12 12 12 12 12 12 13 13 11 10 10 13 12 14
2 0 5 7 4 6 5 6 5 7 7 5 2 3 4 2 5 5 3 4 4 6 6 7 9 8 8 9 10 10 10 10 10 11 11 12 11 11 11 8 8 9 11 14
5 5 10 7 6 5 5 7 5 7 7 5 5 6 4 4 4 3 3 4 3 4 4 5 8 8 8 8 10 10 9 8 9 10 10 10 10 10 11 10 9 10 11 11
2 1 10 7 5 8 9 3 5 6 7 6 7 6 5 5 5 2 4 4 5 3 4 5 7 7 7 8 9 9 9 8 9 9 9 9 10 10 10 10 10 10 8 8
11 10 3 9 8 8 5 6 6 5 6 7 6 5 5 4 5 5 4 3 3 3 4 4 5 4 6 7 8 8 8 9 9 8 9 8 9 9 8 9 8 8 8 8
4 5 8 11 7 4 7 7 4 5 5 5 6 5 5 5 4 4 4 4 2 3 4 5 4 5 4 6 7 7 7 8 7 8 9 8 7 7 7 6 7 7 7 7
8 11 5 7 9 7 5 3 3 2 5 7 5 6 5 4 5 5 4 3 2 3 4 6 5 5 5 6 5 5 6 6 7 7 7 6 7 6 6 8 8 5 5 5
9 8 6 7 5 3 7 7 8 6 4 5 6 8 4 6 4 3 5 3 3 5 4 5 4 6 5 4 5 4 4 5 5 4 5 6 6 6 10 11 15 17 17 11
5 4 5 6 6 3 4 5 3 5 6 5 5 5 5 5 4 7 5 5 5 7 6 5 5 6 4 4 4 4 2 3 4 5 4 4 5 6 6 7 10 13 13 14
4 3 6 3 6 3 3 2 3 2 4 5 5 3 4 5 3 4 7 6 5 4 6 4 4 7 4 3 3 4 3 6 2 3 3 3 4 5 4 5 6 6 9 9
9 10 4 2 1 2 1 1 2 5 4 4 5 6 4 7 7 8 6 5 3 4 6 4 5 8 3 3 3 3 3 2 2 1 1 2 2 3 3 4 4 4 5 6
2 1 3 5 5 4 3 1 3 6 4 4 6 7 9 9 7 6 5 5 4 5 6 5 5 6 3 4 3 3 3 7 5 1 1 1 1 1 1 1 2 2 3 4
3 4 3 6 9 6 9 6 6 5 5 5 7 6 6 6 6 7 6 7 8 7 6 4 7 4 3 3 4 3 1 1 7 2 0 0 1 2 2 2 2 2 2 4
9 4 5 6 6 7 6 7 6 6 5 6 6 5 5 5 8 6 6 5 5 5 6 8 6 5 4 3 4 3 2 2 1 2 2 1 2 3 3 2 2 2 2 2
9 10 7 6 6 6 5 5 5 5 4 4 5 6 5 6 6 6 4 5 5 4 6 5 10 8 6 8 7 4 3 3 2 2 3 7 3 3 2 2 3 3 2 2
6 7 6 6 6 6 5 5 4 4 3 2 4 4 5 5 4 4 4 5 5 4 2 4 4 3 5 6 11 3 5 5 5 4 3 4 4 4 3 8 5 4 4 3
8 7 8 7 6 6 5 4 4 3 3 2 2 2 2 2 2 2 0 1 3 3 4 8 4 3 3 4 6 2 4 4 5 5 5 4 4 3 4 4 4 3 3 4
6 7 7 7 6 5 4 4 4 3 3 4 4 3 3 4 3 2 3 4 3 8 4 3 3 7 6 13 4 5 5 5 5 4 4 4 4 4 4 4 4 4 4 4
6 6 6 6 6 5 4 5 5 4 4 4 4 4 3 3 2 2 3 3 3 6 5 3 9 14 16 8 3 6 7 6 6 6 5 5 6 5 5 4 4 4 4 4
5 5 4 5 5 4 3 4 4 4 4 3 3 4 3 2 3 3 4 8 10 9 4 5 9 15 16 2 2 2 1 0 1 2 3 9 4 3 3 4 3 3 4 6
4 4 5 5 5 4 4 3 3 2 2 3 4 4 4 3 4 3 2 4 10 9 3 10 14 15 3 1 2 3 3 3 3 3 4 4 4 4 4 4 5 5 5 4
6 4 4 6 3 3 3 3 2 2 2 2 2 2 3 3 3 4 3 7 4 8 2 2 2 4 4 3 4 4 4 5 6 4 5 4 5 5 5 5 5 4 3 4
4 6 3 3 2 3 3 3 3 3 2 2 3 3 2 2 3 4 6 3 3 4 4 4 3 7 5 5 6 6 5 5 9 5 6 6 5 5 5 5 5 5 5 4
Wind_Direction
258 264 248 238 226 169 139 204 145 259 240 276 284 292 304 316 340 349 360 358 357 359 357 2 359 356 355 352 360 358 2 3 10 0 8 355 1 7 5 8 354 207 182 192
292 292 318 301 177 194 188 201 283 289 282 219 282 297 316 320 340 348 358 353 353 349 3 359 357 1 354 355 354 356 357 8 4 8 4 6 357 1 13 5 5 354 201 180
277 326 312 358 208 214 237 202 164 233 234 292 299 302 291 299 325 340 344 345 345 353 352 354 355 356 355 349 347 359 358 7 5 8 9 9 348 358 26 10 10 8 333 116
276 346 16 242 208 214 239 247 216 253 259 236 247 261 273 274 297 323 323 324 331 334 346 351 349 357 342 349 355 2 3 6 6 6 13 360 1 352 6 12 14 19 347 44
31 221 279 284 212 194 158 277 213 208 245 255 261 345 301 265 268 275 294 299 302 323 323 358 351 345 349 353 358 6 8 358 3 8 13 2 2 354 358 5 27 27 24 42
89 102 258 234 209 133 113 289 203 199 234 260 70 357 265 255 303 303 319 320 344 343 344 357 350 346 356 357 357 1 3 4 2 1 14 6 352 354 1 11 22 53 35 44
219 239 281 231 140 124 82 243 184 195 227 216 199 202 229 278 276 263 304 319 11 352 345 358 345 345 3 356 2 345 347 4 15 13 11 0 353 4 8 13 18 41 42 43
130 333 288 145 91 161 213 258 191 208 224 226 225 248 232 255 262 269 309 334 339 346 339 356 353 358 353 0 347 343 343 4 20 21 21 1 356 8 13 19 22 28 33 35
179 220 216 208 201 224 168 178 211 185 234 216 223 224 231 221 240 268 273 294 310 334 330 333 355 11 354 335 344 345 352 358 13 13 22 16 359 5 20 23 21 24 29 31
39 278 232 231 255 232 195 209 213 213 213 190 215 223 234 241 223 225 272 285 288 322 312 310 341 353 331 332 338 345 352 351 0 9 26 11 15 3 10 22 27 23 26 28
264 277 297 255 229 235 222 210 230 241 211 220 195 238 218 237 243 231 245 268 266 261 279 287 318 325 323 332 335 349 343 354 355 17 2 8 15 16 11 10 36 35 47 22
229 229 163 249 263 257 187 221 219 183 250 239 194 231 189 239 226 226 244 242 267 281 279 280 309 308 310 317 329 339 337 356 352 24 356 7 8 12 21 30 38 31 27 51
233 194 209 252 261 230 203 223 221 205 214 227 243 214 183 224 225 240 221 243 243 246 252 276 287 287 285 302 320 308 319 327 328 6 360 358 4 16 8 2 27 33 20 33
204 126 303 219 237 234 198 265 317 246 244 223 231 219 206 216 262 244 245 227 207 244 266 244 270 278 270 271 282 283 284 314 12 331 356 353 356 7 1 359 8 8 5 15
233 215 211 202 317 266 171 49 307 269 265 279 222 236 200 233 239 235 238 247 247 235 248 234 257 272 256 242 248 264 285 266 240 262 307 307 6 343 352 353 10 357 349 4
53 161 177 229 241 250 201 241 235 267 237 251 243 229 230 227 241 241 228 194 181 237 248 217 232 242 227 188 241 247 240 288 299 87 6 349 340 270 279 304 333 336 343 336
141 266 209 248 216 210 211 216 220 241 259 255 254 253 229 225 235 245 231 206 212 230 237 217 248 260 228 210 201 224 227 279 282 51 44 254 244 239 233 220 243 279 301 319
227 216 211 196 186 191 210 220 229 241 242 254 264 253 244 225 235 243 237 200 205 231 225 228 231 254 263 240 210 209 200 214 259 264 285 275 265 251 233 213 229 220 254 295
208 220 207 197 189 187 207 225 231 242 265 269 275 266 250 242 240 244 230 185 198 212 254 202 232 231 217 243 234 206 213 212 220 238 226 269 278 269 228 218 242 233 213 234
203 205 201 209 192 192 211 226 233 241 258 267 274 269 275 282 260 244 219 220 214 211 228 215 221 225 231 240 268 163 203 214 216 218 207 212 227 243 246 266 251 236 230 222
213 199 199 198 202 203 207 205 172 202 242 265 282 291 306 320 5 28 261 252 268 245 242 251 243 221 216 231 247 200 201 208 205 212 222 230 249 239 221 220 233 238 238 228
200 198 199 196 189 199 199 180 179 210 253 270 273 272 275 281 288 278 250 233 279 281 276 258 256 256 237 251 228 216 226 225 231 226 221 224 230 237 232 223 226 231 225 225
194 189 193 178 179 198 172 188 209 222 241 242 245 256 254 253 228 200 271 275 260 270 256 234 258 261 258 257 205 216 221 219 220 223 226 226 225 222 227 229 229 227 224 226
188 178 178 147 140 145 177 217 222 228 214 224 250 253 243 245 277 235 251 275 291 300 277 245 259 267 270 99 93 81 55 314 252 231 219 243 213 205 209 223 234 229 224 260
148 147 136 148 172 194 203 212 198 201 217 259 263 264 251 226 204 263 245 270 288 296 289 287 282 278 67 239 255 240 239 238 235 235 233 232 236 226 227 222 225 227 228 224
158 173 167 182 175 176 185 169 196 213 215 251 259 261 275 271 266 287 288 279 251 271 326 307 278 273 272 247 223 223 223 230 248 259 238 219 223 228 232 235 234 235 241 221
150 152 113 126 171 176 169 180 166 220 262 247 260 271 260 291 295 309 311 307 285 281 281 271 252 277 262 247 247 239 233 230 243 215 225 229 223 225 230 231 230 232 235 236